User: anonymous   Login
Location: Kitchener
(43.4500°N, 80.5000°W)
Time: 07:03:39
(UTC-04:00)
Language:

Cosmos 1939 Rocket - Orbit

View from above orbital plane
View from above orbital plane
View from above satellite
View from above satellite

Ground track
Ground track

The orbit data is extracted from the following two-line orbital elements,

1 19046U 88032B   17292.22168745  .00000113  00000-0  13010-4 0  9991
2 19046  97.5118 335.4617 0037324 272.4818  87.2134 15.02291258591266
Epoch (UTC): 19 October 2017 05:19:13
Eccentricity: 0.0037324
inclination: 97.5118°
perigee height: 534 km
apogee height: 586 km
right ascension of ascending node: 335.4617°
argument of perigee: 272.4818°
revolutions per day: 15.02291258
mean anomaly at epoch: 87.2134°
orbit number at epoch: 59126

The dashed part of the orbit path shows where the satellite is in the earth's shadow,  

DLR